TITAN 3C TRANSTAGE DEB, 1671

Orbit data source: Space-Track

TITAN 3C TRANSTAGE DEB, 1671 is space debris in LEO originally from a launch on Fri, 15 Oct 1965 UTC launched from the Air Force Eastern Test Range (AFETR). Debris objects in space refer to the collection of defunct objects orbiting the Earth. Examples of debris include non-operational satellites, rocket bodies, and fragments generated from explosions, collisions, or faulty payload assembly.

Loading next visibility...
Identifier
1671, 1965-082AJ
Orbit
LEO
Country
Flag of USUS
Related business
Manufacturer
Unknown
Mission
Spacecraft
Bus & Motor
Unknown
Mass
Unknown
Launch date (UTC)
1965-10-15 (61 years ago)
Launch vehicle
Unknown
Launch site
Air Force Eastern Test Range (AFETR)
Object type
Payload
Rocket body
Debris
Shape & HBR
Unknown shape, 0.3 m
Radar Cross Section
Medium (>0.1 m² and <1 m²)

Expand to show TLE details & history
Last TLE update: 2 days ago

TLE from 2 days ago
0 TITAN 3C TRANSTAGE DEB
1 01671U 65082AJ  26173.24915625  .00000259  00000-0  50923-4 0  9998
2 01671  32.1625  23.7754 0052502 275.6203  83.8454 14.54012276187137
Epoch: 2026-06-22T05:58Z
TLE epoch observation values (Epoch: 2026-06-22T05:58:47.100Z)
Latitude
-0.00002°
Longitude
23.64133°
Altitude
707.435 km
Speed
7.506 km/s
True Right ascension
01h 35m 06s
True Declination
0° 00' 00"
Sunlit
Object was in daylight at epoch
Visualization orbit readout
Latitude
Unknown
Longitude
Unknown
Altitude
Unknown
Speed
Unknown
Apparent Right ascension
Unknown
Apparent Declination
Unknown
Sunlit
N/A
Visualization observer readout
Local Sidereal Time
09:25:33
Azimuth
Unknown
Elevation
Unknown
Doppler factor
Unknown
Orbital elements
Apogee altitude
753.398 km
Perigee altitude
678.905 km
Semi-major axis
7,094.288 km
Eccentricity
0.00525
Inclination
32.1625°
RAAN
23.7754°
Arg. of periapsis
275.6203°
True anomaly
84.44397°
Mean anomaly
83.8454°
Eccentric anomaly
84.14464°
Mean motion
3.63229 °/min
Orbital period
99.11 mins
BSTAR
0.000050923

Documentation

Showing up to 5 results
|